SCP
1 1 1 0 1 1 1 1 1 1 1 1 1 1 1 1 1 1 1 1 1 0 0 0 0 0 0 0 0 0 0 0 0 0 0 0 0 0 0 0 0 0 0
1 1 1 1 1 1 1 1 1 1 1 1 1 1 1 1 1 1 1 1 1 1 0 0 0 0 0 0 0 0 0 0 0 0 0 0 0 0 0 0 0 0 0
1 1 1 1 1 1 1 1 1 1 1 1 1 1 1 1 1 1 1 1 1 1 0 0 0 0 0 0 0 0 0 0 0 0 0 0 0 0 0 0 0 0 0
1 1 1 1 1 1 1 1 1 1 1 1 1 1 1 1 1 1 1 1 1 1 1 0 0 0 0 0 0 0 0 0 0 0 0 0 0 0 0 0 0 0 0
0 1 1 1 1 1 1 1 1 1 1 1 1 1 1 1 1 1 1 1 1 1 1 1 1 0 0 0 0 0 0 0 0 0 0 0 0 0 0 0 0 0 0
0 1 1 1 1 1 1 1 1 1 1 1 1 1 1 1 1 1 1 1 1 1 1 1 1 1 0 0 0 0 0 0 0 0 0 0 0 0 0 0 0 0 0
1 1 1 1 1 1 1 1 1 1 1 1 1 1 1 1 1 1 1 1 1 1 1 1 1 1 1 0 0 0 0 0 0 0 0 0 0 0 0 0 0 0 0
1 1 1 1 1 1 1 1 2 2 1 1 1 1 1 1 1 1 1 1 1 1 1 1 1 1 1 1 1 0 0 0 0 0 0 0 0 0 0 0 0 0 0
1 1 1 1 1 1 1 1 2 2 1 1 1 1 1 1 1 1 1 1 1 1 1 1 1 1 1 1 1 1 0 0 0 0 0 0 0 0 0 0 0 0 0
1 1 1 1 1 1 1 2 2 2 1 1 1 1 1 1 1 1 1 1 1 1 1 1 1 1 1 1 1 1 1 0 0 0 0 0 0 0 0 0 0 1 1
0 0 1 1 1 1 1 1 2 2 1 1 1 1 1 1 1 1 1 1 1 1 1 1 1 1 1 1 1 1 1 1 1 1 1 1 1 1 1 1 1 0 0
0 1 1 1 1 1 1 1 2 2 1 1 1 1 1 1 1 1 1 1 1 1 1 1 1 1 1 1 1 1 1 1 1 1 1 1 1 1 1 1 1 0 -0
1 1 1 1 1 1 1 1 1 1 1 1 1 1 1 1 1 1 1 1 1 1 1 1 1 1 1 1 1 1 1 1 1 1 1 1 1 1 1 1 1 1 0
1 1 1 1 1 2 2 1 1 1 1 1 1 1 1 1 1 1 1 1 1 1 1 1 1 1 1 1 1 1 1 1 1 1 1 1 1 1 1 1 1 1 1
1 1 1 1 2 2 2 1 1 1 1 1 1 1 1 1 1 1 1 1 1 1 1 1 1 1 1 1 1 1 1 1 1 1 1 1 1 1 1 1 1 1 1
1 1 1 2 2 2 1 1 1 1 1 1 1 1 1 1 1 1 1 1 1 1 1 1 1 1 1 1 1 1 1 1 1 1 1 1 1 1 0 0 0 0 1
1 1 1 1 2 2 1 1 1 1 1 1 1 1 1 1 1 1 1 1 1 1 1 1 1 1 1 1 0 0 1 1 1 1 1 1 1 1 1 1 0 0 0
1 1 1 1 1 1 1 1 1 1 1 1 1 1 1 1 1 1 1 1 1 1 1 1 1 1 1 1 0 0 1 1 1 1 1 1 1 1 1 1 1 1 1
1 1 1 1 1 1 1 1 1 1 1 1 1 1 1 1 1 1 1 1 1 1 1 1 1 1 1 1 0 0 0 1 1 1 1 1 1 1 1 1 1 1 1
1 1 1 1 1 1 1 1 1 1 1 1 1 1 1 1 1 1 1 1 1 1 1 1 1 1 1 1 0 0 0 1 1 1 1 0 0 0 0 0 1 1 1
1 1 1 1 1 1 1 2 2 1 1 1 1 1 1 1 1 1 1 1 1 1 1 1 1 1 1 1 0 0 0 1 1 1 1 0 0 0 0 0 1 1 1
1 1 1 2 2 2 2 2 2 2 2 1 1 1 1 1 1 1 1 1 1 1 1 1 1 1 1 1 0 0 0 0 1 1 0 0 0 0 0 0 0 0 0
1 1 2 2 2 2 2 2 2 2 2 2 2 2 2 1 1 1 1 1 1 1 1 1 1 1 1 1 0 0 0 0 0 0 0 0 0 0 0 0 0 0 0
2 2 2 2 2 2 2 3 3 2 2 2 2 2 2 1 1 1 1 1 1 1 1 1 1 1 1 1 0 0 0 0 0 0 0 0 0 0 0 0 0 0 0
2 2 2 2 2 2 2 2 2 3 3 3 2 2 1 1 1 1 1 1 1 0 0 0 0 0 0 0 0 0 0 0 0 0 0 0 0 0 0 0 0 0 0
2 2 2 2 2 2 2 2 2 3 3 3 2 2 1 1 1 1 1 0 0 0 0 0 0 0 0 0 0 0 0 0 0 0 0 0 0 1 0 0 0 0 0
Wind_Speed
11 10 9 9 9 8 7 5 4 4 2 1 1 1 1 1 2 3 3 2 2 1 0 0 1 1 1 1 1 1 1 1 1 1 1 1 2 3 2 2 2 3 3
10 9 9 9 9 8 7 6 5 4 3 2 1 1 1 1 2 2 3 2 1 2 2 1 1 1 1 1 1 1 1 1 1 1 1 1 1 1 2 2 2 3 2
12 11 10 9 9 9 8 6 5 5 3 3 2 1 2 1 1 2 2 2 1 1 0 1 1 0 1 1 2 2 2 2 2 1 1 1 1 1 0 1 1 1 2
11 12 11 10 10 10 9 7 6 5 4 2 2 2 2 2 1 1 2 1 1 1 1 1 0 1 0 0 2 1 1 2 2 1 1 1 0 1 1 2 1 2 2
12 12 11 10 10 10 9 8 7 5 4 3 2 1 1 1 1 1 2 2 2 2 1 1 1 0 1 1 1 0 1 2 2 2 1 1 1 2 1 2 2 1 1
11 12 12 10 9 9 9 9 8 6 5 4 3 2 1 1 1 0 2 2 2 2 2 2 1 1 1 1 1 1 2 2 2 2 2 1 1 1 2 2 2 2 2
10 11 12 11 9 9 9 9 9 7 6 5 3 3 2 1 1 2 2 2 1 1 1 1 1 1 1 1 1 1 2 2 2 2 2 2 2 2 2 2 2 2 1
10 11 10 10 9 9 8 8 9 7 6 5 4 3 2 2 2 3 1 1 1 1 2 2 2 1 1 2 1 1 2 1 1 2 2 2 3 2 2 2 2 2 1
9 10 10 10 10 9 8 8 8 7 6 6 5 4 3 2 2 1 1 1 1 1 2 2 2 2 2 2 1 1 1 1 1 2 2 2 3 3 2 2 2 2 2
9 9 10 10 9 9 8 8 8 6 5 5 4 4 4 2 1 1 1 1 1 2 1 0 1 1 1 1 1 1 1 1 1 2 2 2 3 3 2 2 2 1 1
6 7 7 7 7 8 8 8 7 7 5 5 4 3 3 3 2 1 1 1 1 1 1 1 1 1 1 1 2 2 1 2 2 2 2 2 3 3 3 2 2 1 1
6 7 7 6 6 6 7 7 6 7 6 5 4 3 3 3 3 2 1 2 2 2 2 2 2 2 2 2 2 2 2 2 2 2 2 2 2 2 3 3 2 2 2
6 6 6 6 5 5 5 6 5 6 6 5 5 4 3 3 2 2 2 2 2 2 2 2 2 2 2 2 2 2 2 2 2 2 2 2 2 3 2 3 3 2 2
5 6 6 6 5 4 4 4 4 4 4 4 4 4 3 2 2 2 2 2 2 2 2 2 2 2 2 2 2 2 2 2 2 2 1 1 1 2 3 3 3 3 2
3 4 5 5 5 5 4 4 3 2 2 3 3 3 3 3 2 2 2 1 1 2 2 2 2 3 2 2 1 2 2 2 2 1 1 1 1 2 2 2 3 2 2
2 3 3 4 5 5 4 4 3 2 2 2 3 3 3 2 2 2 2 2 2 1 2 2 3 3 2 1 1 1 2 2 2 2 1 1 1 1 1 2 3 2 2
1 2 2 2 3 4 4 4 3 3 2 2 2 2 3 2 2 3 2 2 2 2 2 2 2 2 1 2 2 2 3 2 2 1 1 2 1 1 1 1 1 1 2
1 1 1 0 2 3 3 3 3 3 3 2 2 2 2 2 2 2 2 2 2 2 3 3 3 2 2 3 3 3 3 2 2 2 2 2 1 1 1 1 1 1 2
2 2 1 1 1 3 3 2 2 2 2 2 2 2 3 2 3 3 3 2 2 3 3 2 3 3 2 3 3 3 2 2 3 3 2 2 2 2 1 2 2 2 1
2 2 1 0 1 2 3 2 3 3 3 2 2 2 3 3 3 3 3 2 2 3 2 2 3 3 3 3 4 4 3 3 2 2 2 2 2 2 2 3 3 3 2
2 2 1 0 1 2 3 3 2 2 2 2 2 3 3 3 3 3 3 3 3 2 2 3 3 3 3 3 3 4 3 3 3 2 1 1 0 1 2 3 3 4 3
2 1 1 0 1 1 2 3 3 2 2 2 2 3 3 3 3 2 2 2 3 3 3 3 3 2 1 1 1 3 4 4 3 2 1 1 1 1 3 3 4 5 4
1 1 1 0 1 2 2 2 2 2 2 2 2 2 2 2 2 2 2 3 3 3 2 1 1 0 1 1 1 1 3 4 2 2 3 3 3 3 3 4 5 4 3
2 1 2 2 2 1 1 1 2 2 2 1 1 1 2 2 1 1 2 2 1 1 1 1 0 0 1 1 1 1 1 1 1 1 2 3 5 5 4 3 3 2 2
3 2 2 1 1 1 1 1 1 2 2 1 1 2 2 1 1 1 2 1 2 2 1 1 1 1 0 1 2 1 1 1 1 1 1 2 2 1 1 1 1 1 1
4 2 2 1 1 1 1 1 0 1 1 1 1 1 1 1 1 1 2 5 3 4 4 3 2 2 2 2 1 1 1 1 1 1 2 2 2 2 2 1 1 1 1
Wind_Direction
152 149 150 147 145 138 137 138 141 137 137 128 144 153 149 153 138 136 122 116 140 154 189 123 199 194 182 167 155 165 230 238 233 259 269 249 217 194 193 197 196 199 197
148 147 154 156 151 148 148 145 153 154 158 151 163 173 169 167 146 112 110 130 163 172 184 160 220 207 174 163 183 213 237 260 234 235 291 295 277 288 207 183 197 210 204
155 155 167 163 159 156 157 160 158 154 166 172 179 164 148 158 108 129 141 163 171 162 333 129 276 288 177 177 195 222 225 254 258 225 221 275 289 313 291 226 207 209 219
158 161 167 166 165 162 161 154 150 152 160 175 192 189 174 170 171 142 130 146 215 201 183 136 154 309 330 193 228 199 252 256 271 270 258 237 229 281 306 304 242 215 230
164 164 163 165 166 165 161 155 149 153 160 182 199 210 206 185 147 122 134 177 190 194 164 158 170 240 268 236 250 232 275 268 271 284 264 258 233 232 240 273 281 262 229
161 157 157 158 163 163 161 152 146 153 165 181 191 182 228 242 111 154 173 207 190 181 176 180 189 236 259 251 245 236 238 263 294 306 293 267 265 266 252 254 259 264 261
156 154 155 159 162 162 159 152 151 161 172 179 188 178 205 216 197 225 224 227 218 177 170 188 175 215 238 248 234 233 249 249 267 283 288 296 286 278 274 275 273 271 268
156 154 156 155 158 160 157 152 154 165 172 176 183 179 188 217 218 221 254 248 267 188 165 170 176 203 230 249 216 243 236 232 248 272 284 296 291 287 277 259 264 275 269
144 151 153 156 159 161 157 157 153 163 173 179 175 179 192 225 241 208 235 268 268 233 153 170 190 202 215 244 215 234 251 229 239 264 270 264 276 278 275 276 260 232 257
144 154 157 160 160 160 155 151 150 161 167 172 185 183 189 196 224 265 235 297 339 346 358 304 241 222 214 224 230 254 236 232 248 251 281 285 290 301 293 289 288 258 243
144 143 142 148 154 156 153 154 152 157 168 177 183 179 171 180 192 212 249 247 281 282 288 296 284 249 221 221 220 242 240 232 252 268 276 279 290 305 309 305 296 275 247
131 132 140 147 150 150 149 149 156 163 170 172 169 168 169 179 194 201 216 223 232 244 240 244 260 259 243 226 227 240 250 232 238 253 281 294 296 301 307 308 300 287 272
122 129 135 137 141 141 141 147 158 168 171 168 169 169 181 186 199 203 211 221 233 231 238 240 232 246 258 253 243 234 248 253 258 255 259 282 299 311 313 310 308 307 301
113 124 128 128 134 132 128 137 151 155 161 160 167 169 181 186 192 201 212 207 216 210 226 251 245 236 242 269 277 256 246 256 262 259 267 284 289 305 308 305 309 305 302
111 113 122 127 137 132 134 138 148 150 154 162 169 172 178 173 181 199 208 200 211 220 229 249 253 247 232 250 262 280 261 255 257 252 247 271 87 41 358 323 325 321 315
95 105 117 128 136 139 146 150 155 151 152 171 176 165 172 172 188 212 203 205 212 224 231 231 243 251 258 268 233 241 269 264 252 251 260 227 173 112 59 333 338 338 311
99 82 63 118 143 147 152 158 156 159 166 185 181 164 170 179 197 220 211 228 230 228 237 238 242 239 238 275 297 261 261 257 267 260 250 273 264 179 210 252 275 312 295
73 84 62 151 162 153 149 156 159 162 175 187 192 179 188 199 203 213 222 229 232 234 233 230 235 237 236 241 240 243 236 241 241 235 228 238 239 294 292 275 286 283 302
92 88 79 242 163 145 141 150 175 177 193 197 198 204 199 206 213 218 234 240 239 237 233 229 230 229 232 242 239 228 230 234 241 235 238 220 204 264 246 241 255 266 278
75 70 66 56 102 127 149 172 200 200 212 206 211 218 210 211 217 218 228 229 234 237 236 236 233 226 226 229 227 225 237 241 244 224 215 205 220 249 239 238 246 251 261
52 62 57 69 115 141 162 176 200 220 233 225 213 215 213 221 220 213 216 219 228 236 234 234 243 232 221 210 215 222 241 246 251 242 235 225 185 250 270 264 256 257 268
45 17 16 70 124 159 176 184 200 216 224 220 219 214 211 227 221 210 222 222 225 231 230 228 236 230 193 153 215 239 245 255 251 255 254 239 229 284 287 271 267 274 266
15 345 343 31 136 174 192 199 187 173 201 213 213 212 206 217 195 207 226 222 224 236 231 202 208 222 101 81 39 253 265 271 263 280 280 282 277 271 266 251 264 265 249
348 354 357 27 27 46 176 190 161 163 180 183 196 203 204 216 191 219 235 244 262 269 296 299 285 80 89 57 17 337 317 313 300 306 308 301 283 272 263 263 256 241 248
347 356 8 25 358 358 45 43 124 150 167 180 191 200 215 207 149 86 32 24 37 22 347 330 347 351 6 20 348 297 298 308 318 300 270 261 259 257 254 256 266 261 249
348 349 6 8 4 354 357 39 54 162 165 192 204 213 210 184 184 158 96 52 59 57 54 51 52 45 85 108 25 356 307 261 233 256 256 251 250 264 264 256 252 265 265